Wind_Speed
9 8 7 9 11 13 15 19 21 21 22 21 19 18 17 16 14 12 10 10 11 12 13 13 14 16 16 16 17 17 16 16 15 14 14 14 14 15 15 15 15 15 14 14 14 14 14 13 13 12 11 11 10 10 10 9 9 9 8 8 8 8 8
8 8 8 9 10 11 13 18 21 21 20 20 19 19 18 18 17 15 13 11 11 12 14 14 15 16 17 18 18 18 17 16 15 15 14 14 14 14 15 15 15 14 14 14 15 15 15 14 13 12 12 11 11 10 10 10 10 10 10 10 9 8 8
9 9 8 9 11 12 13 16 19 20 21 21 20 19 20 20 18 16 15 14 13 13 14 16 16 17 18 19 20 20 19 18 17 16 16 15 15 15 15 15 15 15 14 15 15 15 15 14 13 13 12 12 12 11 11 10 10 11 11 11 10 9 9
10 10 9 9 11 12 15 17 19 21 22 22 22 21 22 22 20 18 16 15 15 15 15 16 17 17 18 20 21 21 21 20 19 18 17 17 17 17 17 16 15 15 15 15 15 15 15 14 13 13 13 12 12 12 11 11 11 11 12 12 11 10 10
9 10 11 11 11 12 13 16 19 21 23 23 24 23 23 24 22 21 19 18 17 18 17 16 18 19 19 19 21 21 21 20 19 18 18 18 19 19 18 17 17 16 15 15 15 15 15 14 13 13 13 13 12 12 12 12 11 11 12 12 11 11 12
8 10 11 12 13 13 13 14 17 20 23 24 24 24 25 26 25 23 22 21 19 19 20 19 20 20 20 19 20 21 22 21 20 19 19 19 20 20 19 19 18 18 17 16 16 16 16 15 14 14 13 13 13 13 13 13 13 12 12 12 12 12 12
10 11 11 12 13 14 14 13 14 18 21 23 24 26 27 28 27 25 25 24 22 21 21 21 22 22 21 21 21 21 21 22 21 21 21 21 22 22 21 20 20 19 19 18 18 18 17 16 16 15 15 15 14 14 14 14 14 13 13 12 11 12 11
12 13 13 13 14 14 15 14 14 16 19 21 22 24 27 28 29 28 25 24 23 23 22 23 24 23 23 23 22 22 21 21 22 23 23 23 23 23 23 22 21 20 20 20 19 19 18 17 17 16 16 16 15 15 14 14 13 13 12 12 12 12 11
15 15 15 15 15 15 15 15 15 16 17 18 19 21 23 26 29 29 26 24 25 25 24 25 25 24 24 24 24 23 22 22 23 23 24 24 23 23 23 23 22 21 21 21 21 20 19 18 18 18 17 17 16 16 15 14 13 13 13 12 12 12 12
16 16 16 16 16 16 16 15 15 16 16 17 18 19 20 23 27 29 28 26 26 26 25 25 26 26 25 25 24 24 24 23 23 23 24 24 24 24 24 24 23 23 22 22 21 21 20 20 19 19 18 18 17 17 16 15 15 15 14 13 13 13 13
16 17 17 17 17 16 16 16 16 16 16 16 17 19 20 21 24 29 31 30 28 27 26 26 27 28 28 26 25 24 25 24 23 23 23 24 24 24 24 24 24 24 23 22 22 21 21 20 20 19 18 18 17 17 16 16 16 16 16 15 14 14 14
17 17 18 18 18 17 16 16 16 16 15 15 16 18 20 21 23 26 31 32 32 31 30 28 28 29 29 27 26 25 25 25 25 24 23 23 23 24 24 24 24 24 23 22 22 21 21 20 20 19 18 17 17 17 17 17 17 17 17 17 16 16 16
19 19 19 19 18 17 16 15 15 15 15 14 15 17 19 21 22 25 29 32 34 36 35 31 30 30 29 28 28 27 26 25 25 26 25 24 23 23 23 24 24 24 23 22 22 22 21 21 20 19 19 18 17 17 18 19 19 18 18 17 17 17 17
20 20 20 19 18 18 16 14 14 14 14 13 14 15 18 20 22 24 28 31 35 38 38 34 31 32 31 30 30 29 27 26 25 26 27 26 25 24 23 23 23 23 23 23 23 23 22 22 21 21 20 19 19 19 20 20 20 19 18 17 18 18 18
20 20 19 19 18 17 15 14 13 14 13 13 12 14 16 18 21 23 27 31 34 37 39 36 33 34 33 32 31 30 28 27 25 26 28 28 28 27 25 24 24 24 24 25 24 24 23 23 23 22 21 20 20 20 20 20 19 18 18 18 18 18 19
20 19 18 17 15 15 14 13 12 13 13 12 12 13 15 16 19 21 23 28 32 35 37 37 35 34 33 33 33 31 30 29 27 26 28 29 29 29 28 27 27 26 26 26 26 25 25 25 25 24 22 21 21 20 20 20 19 18 18 19 19 19 19
20 18 16 14 12 13 13 12 12 12 12 11 11 12 14 15 18 19 21 24 30 33 35 35 34 32 31 31 32 32 32 31 29 28 28 30 30 30 30 30 29 29 28 27 28 28 27 27 26 25 24 23 22 22 21 21 20 19 20 20 21 21 20
19 16 13 11 10 11 12 12 10 10 10 9 10 11 13 15 17 19 20 22 26 30 31 32 31 30 29 28 30 32 33 32 30 29 29 30 32 32 32 32 31 30 30 30 29 29 28 28 28 27 26 24 24 23 22 23 22 21 21 21 22 22 22
17 14 11 9 9 10 10 10 9 9 9 9 10 11 12 14 16 17 19 20 24 29 31 31 30 30 28 28 29 31 33 33 31 30 29 29 31 33 33 34 33 32 32 31 31 30 29 29 29 28 28 27 25 23 23 23 23 22 22 22 23 23 23
15 13 10 8 7 7 7 8 8 8 9 10 11 11 12 14 16 17 18 19 23 29 33 32 32 31 31 31 32 32 32 32 32 31 31 30 31 33 34 34 33 32 32 31 31 30 30 29 29 29 28 28 25 23 23 23 24 24 24 24 24 24 25
13 11 10 8 6 5 6 7 8 8 9 10 10 10 11 13 15 16 17 18 21 27 33 34 34 33 33 33 33 31 30 30 28 28 30 31 31 31 32 33 33 32 32 30 30 30 30 30 29 29 29 28 26 24 23 24 24 25 25 25 26 26 27
12 11 10 8 6 5 6 7 9 9 9 8 6 7 8 9 12 14 14 15 19 25 30 34 35 34 34 33 32 31 31 31 31 29 29 29 31 31 31 32 35 35 33 31 31 30 30 29 29 29 29 27 24 23 23 24 25 25 26 27 27 28 29
13 12 10 7 6 5 6 8 9 9 9 8 6 6 6 5 6 8 9 10 12 19 26 31 33 34 34 34 34 34 33 34 34 32 30 31 33 33 30 31 33 33 31 32 32 30 28 28 28 29 28 25 23 22 23 24 26 26 28 28 29 30 30
13 12 10 7 5 5 6 8 9 9 8 7 7 7 6 5 4 4 4 5 7 11 17 23 26 29 32 33 33 33 33 34 34 33 32 32 34 33 30 30 31 30 30 32 30 26 25 25 26 27 26 23 23 24 25 26 27 28 29 29 30 31 32
12 11 10 7 6 6 6 7 8 8 8 6 6 7 7 4 2 3 3 1 3 6 9 12 13 16 21 25 26 27 28 27 29 31 31 30 30 29 27 27 29 30 30 29 24 20 20 22 24 24 23 23 24 26 27 28 29 29 30 30 31 32 34
12 11 10 8 7 8 8 7 7 7 7 7 5 6 6 3 3 4 4 4 2 2 4 7 7 8 11 16 20 21 20 19 22 25 24 23 22 21 18 17 20 24 26 24 20 19 20 21 22 22 23 24 25 26 27 27 27 28 28 28 29 31 33
12 11 9 9 9 9 10 9 6 6 6 6 5 5 3 3 4 5 6 6 5 4 1 3 5 6 6 9 13 14 13 13 16 19 19 20 20 19 16 13 13 16 18 18 18 20 20 20 21 21 22 23 24 24 24 24 25 26 26 26 27 28 28
12 11 10 9 10 9 10 10 5 5 6 5 4 3 2 3 5 5 6 7 6 5 5 3 3 5 6 7 9 10 12 13 12 12 14 16 19 20 19 16 14 14 15 17 18 19 19 19 18 18 19 20 22 22 22 23 23 23 24 24 23 21 20
10 11 10 8 8 8 8 8 4 4 6 6 3 2 3 4 6 6 5 6 7 7 7 5 3 3 5 9 8 6 8 12 11 9 9 11 13 17 19 19 18 17 16 16 17 18 18 19 19 20 20 21 22 22 21 20 20 20 20 19 18 16 15
9 11 10 7 6 6 5 5 3 6 6 5 3 2 3 4 5 5 4 2 3 6 6 4 5 6 2 7 9 3 0 4 7 9 8 8 9 13 17 18 19 19 18 18 18 18 19 20 21 21 20 18 18 18 17 16 16 15 15 15 16 16 14
9 11 10 7 5 3 5 5 5 5 3 2 2 2 2 4 4 3 3 3 3 1 2 1 1 3 6 5 6 6 4 3 2 6 8 8 9 11 10 9 8 9 12 13 14 16 17 15 14 13 12 10 11 12 12 13 13 13 13 14 15 15 14
8 10 11 9 4 2 6 6 3 1 2 2 3 3 4 5 4 4 5 4 2 4 3 1 0 4 9 13 9 5 5 3 2 3 4 5 7 7 4 3 3 3 3 3 2 4 5 3 2 3 3 4 5 5 6 7 7 8 9 9 9 10 10
6 9 10 8 3 3 7 7 6 6 6 6 7 7 7 8 8 8 9 10 10 10 8 7 9 11 13 13 11 8 7 6 3 1 3 4 3 2 3 3 3 4 5 5 6 6 6 7 7 5 5 4 3 3 2 2 2 3 3 3 2 3 4
6 7 7 6 4 3 8 8 8 8 7 8 9 9 9 9 9 11 11 12 14 15 14 13 14 15 14 13 13 12 10 8 6 5 6 8 8 8 7 7 7 9 9 9 10 10 9 10 9 9 8 8 7 6 5 5 4 4 4 4 3 2 1
5 6 5 4 4 2 7 9 9 9 8 9 10 10 10 9 9 11 12 12 15 15 14 13 13 13 13 13 13 12 12 10 9 8 8 9 10 9 9 9 9 9 9 9 9 8 8 8 8 8 7 7 7 6 6 5 4 4 3 3 3 3 2
3 4 4 2 2 2 3 8 11 10 8 9 10 9 9 9 10 11 11 12 14 14 12 12 12 11 11 12 11 11 11 10 9 9 9 8 9 9 9 8 8 8 8 7 7 7 7 7 7 6 6 6 5 5 5 5 4 4 3 2 2 2 1
3 2 3 2 1 2 2 5 11 11 8 9 10 10 9 9 9 10 11 11 12 12 11 10 10 9 9 10 9 9 10 9 9 9 8 8 8 8 7 7 7 6 6 6 6 6 5 5 5 5 5 4 4 3 3 3 2 2 2 2 1 1 1
3 1 1 1 1 3 0 6 10 10 8 9 10 10 10 9 9 10 10 10 10 10 9 9 9 8 8 7 7 7 8 7 7 8 7 7 7 7 6 6 6 6 5 5 5 5 5 5 4 4 4 4 3 3 3 2 2 2 2 2 2 2 3
Wind_Direction
327 312 289 267 256 251 242 234 231 233 236 238 231 220 210 204 204 209 222 233 232 229 226 223 221 214 202 195 198 202 204 205 203 199 198 199 200 199 200 203 204 206 208 209 209 209 212 214 214 213 215 216 217 220 222 226 228 229 230 231 235 241 246
331 320 308 291 273 259 247 242 242 241 239 240 245 246 234 220 213 207 207 218 227 232 232 227 223 221 213 204 201 203 208 211 209 206 204 204 206 206 205 206 206 207 209 210 211 212 214 216 216 216 216 214 215 219 222 226 229 229 229 229 233 238 239
326 324 316 300 285 273 262 256 252 248 242 237 240 251 250 240 230 218 210 206 209 223 233 231 225 222 220 215 208 205 207 211 212 210 207 208 210 211 210 210 210 211 212 213 214 215 216 217 219 220 219 217 218 220 223 226 230 232 233 231 232 236 238
322 321 319 310 296 282 273 267 262 257 250 242 237 240 247 247 243 237 232 221 208 210 222 232 232 226 224 223 218 213 209 210 212 212 211 211 213 214 214 214 215 217 217 217 218 219 220 220 220 221 221 221 224 225 225 227 231 235 238 237 237 239 243
315 312 312 310 303 293 281 271 267 263 257 250 241 234 236 241 244 243 241 236 222 211 210 220 231 231 228 227 225 222 217 213 211 212 213 215 217 219 217 216 218 220 222 222 223 224 225 224 222 222 222 223 227 230 230 231 232 234 238 239 240 244 248
304 303 302 302 299 295 287 275 267 263 259 254 246 236 230 232 239 241 237 234 230 222 213 211 218 226 229 230 229 227 224 220 215 213 214 216 218 220 219 219 220 221 224 226 227 228 229 226 224 223 223 224 227 231 234 237 237 237 238 239 240 243 248
300 299 297 295 293 291 288 281 271 263 259 254 248 240 231 227 229 234 236 235 231 228 224 216 212 216 224 228 229 228 226 225 222 218 216 217 218 219 218 219 220 222 225 227 229 229 229 227 225 225 227 228 229 231 234 239 242 243 242 241 241 243 246
302 300 299 294 289 286 284 283 278 270 263 257 251 244 237 229 225 227 234 236 231 228 227 223 216 213 217 223 227 227 225 224 224 223 220 218 218 217 218 219 220 222 224 227 228 229 228 227 225 226 228 230 232 235 237 242 247 251 250 248 246 247 248
302 302 301 297 291 286 283 281 279 278 272 264 257 250 242 235 227 224 227 231 233 231 228 224 221 217 214 218 225 227 225 223 221 222 222 220 218 216 217 218 220 221 224 225 227 228 227 227 227 229 230 232 235 238 241 244 247 251 253 251 250 251 253
303 303 302 299 293 288 284 280 277 278 279 272 263 256 248 241 231 224 220 223 231 234 229 224 224 222 216 215 220 226 228 226 222 221 221 221 220 219 218 219 220 221 222 223 225 226 226 226 229 232 235 236 237 239 241 244 247 250 252 253 254 256 258
304 303 303 301 296 290 286 284 279 276 280 276 266 257 250 245 236 225 219 219 223 228 229 227 227 227 222 216 215 221 227 229 227 225 223 222 221 222 222 223 224 223 222 222 224 226 227 228 231 234 237 238 238 239 242 247 250 254 256 258 259 260 261
306 304 304 303 299 293 287 286 282 278 280 280 270 258 249 245 240 230 223 219 218 222 226 227 228 230 228 223 217 217 222 227 229 228 227 226 224 224 225 227 229 228 226 225 225 227 229 231 233 235 236 237 239 241 244 248 253 258 259 259 260 261 261
308 305 305 304 300 294 288 287 285 282 282 283 275 262 250 244 242 236 229 222 218 220 224 226 227 228 229 229 226 220 217 221 227 228 228 229 228 227 227 228 229 229 229 229 229 229 231 233 233 234 235 237 240 243 246 249 254 256 256 255 258 261 263
310 307 306 306 302 296 291 289 287 284 285 284 277 265 251 244 241 239 235 228 222 221 222 224 225 225 227 232 232 227 219 216 222 228 229 228 229 228 228 228 228 228 229 231 231 231 231 233 234 234 236 239 241 244 247 251 255 256 252 252 257 262 265
314 310 309 308 303 297 296 294 289 286 285 284 279 268 255 246 242 241 239 234 228 223 221 222 224 225 228 231 231 229 224 217 217 226 230 229 228 228 229 230 230 230 231 232 234 235 234 235 235 236 238 240 243 247 251 255 258 257 252 251 255 259 262
319 315 313 310 304 299 300 300 293 286 284 282 280 272 260 250 245 243 241 237 230 224 221 221 222 226 229 231 230 229 227 220 216 222 229 230 229 229 229 231 232 233 234 235 237 238 237 237 238 239 241 243 246 249 253 256 257 255 253 253 253 256 259
321 319 316 312 306 302 302 303 298 290 287 283 280 275 265 256 248 245 243 236 227 221 218 218 221 226 229 230 228 226 225 222 217 219 226 228 228 228 228 230 232 234 236 238 239 239 239 239 240 241 243 246 249 250 252 254 252 249 250 253 255 258 261
321 320 318 315 312 308 304 302 300 296 294 290 284 278 270 262 254 248 244 235 225 219 216 216 219 223 223 222 222 222 224 223 220 221 225 227 227 227 227 229 231 232 235 237 239 241 241 242 242 243 244 246 248 249 250 250 248 248 251 254 259 262 264
320 319 319 317 317 315 307 303 303 302 298 291 283 277 271 266 259 253 247 235 222 218 217 217 218 219 218 219 221 221 221 222 222 223 228 231 230 228 227 228 229 230 233 236 239 240 241 243 245 246 247 246 245 245 245 245 247 251 254 256 258 261 261
320 319 318 318 317 312 306 305 305 305 302 292 281 275 270 263 258 254 250 239 223 215 216 220 223 222 221 225 227 225 224 223 223 222 223 227 230 231 230 230 230 231 233 237 240 241 242 243 244 245 245 245 244 243 243 245 248 251 254 255 255 256 258
321 319 317 316 311 297 298 305 305 310 316 305 287 277 270 263 260 258 253 246 230 216 215 221 225 226 228 233 235 234 233 234 235 232 228 226 228 233 235 235 235 235 234 236 240 241 242 243 244 243 242 241 241 243 246 250 252 253 255 256 256 257 259
319 320 317 313 305 286 288 302 306 313 323 323 311 299 286 270 263 261 259 255 240 225 221 223 226 229 233 237 240 240 239 241 242 242 240 236 232 233 235 236 236 237 235 234 235 236 240 244 245 246 247 245 243 245 249 253 257 259 260 261 262 263 264
315 321 319 309 301 284 279 295 306 312 320 325 327 325 320 310 288 273 265 259 242 230 227 227 229 233 237 240 242 242 242 244 244 243 243 241 237 234 232 231 234 237 239 238 236 232 236 244 248 250 252 251 250 250 253 257 261 264 267 268 269 270 270
315 323 322 308 288 271 271 288 300 307 313 319 328 334 335 341 344 325 286 252 228 221 225 230 234 237 239 240 241 242 244 245 244 241 239 238 238 237 231 226 228 233 237 241 239 233 233 242 249 250 251 253 256 258 260 261 264 267 270 271 273 273 273
313 322 328 318 287 263 265 284 297 304 307 311 332 350 351 356 30 36 22 337 227 218 223 229 232 232 232 234 238 241 243 243 241 239 236 231 230 232 228 224 225 227 232 240 245 243 240 242 246 250 254 257 260 262 264 265 266 268 270 271 273 273 273
308 316 328 325 300 269 258 270 301 315 306 301 326 354 4 36 98 86 62 68 105 178 218 221 213 205 212 224 231 235 239 239 236 235 231 222 218 220 222 220 220 222 229 239 245 244 242 242 244 251 256 256 257 261 263 265 267 269 270 271 272 273 274
307 313 322 326 315 287 258 255 293 320 303 302 333 1 25 90 117 108 91 90 91 82 83 201 202 203 212 221 224 227 231 231 223 215 211 211 211 213 217 219 217 219 225 230 233 235 238 243 248 252 255 255 258 262 264 267 270 271 271 271 273 276 278
311 316 321 322 316 295 256 240 263 311 315 324 351 29 81 136 151 132 103 86 85 92 92 102 174 204 205 199 204 211 215 218 216 205 203 211 212 211 214 214 214 218 223 225 229 234 241 247 250 253 255 257 261 264 266 269 271 272 272 269 269 273 278
319 327 332 326 314 294 252 232 254 319 336 351 25 110 142 165 182 177 135 97 88 96 98 89 97 135 176 196 206 220 223 228 243 251 236 224 219 218 220 222 224 227 230 234 236 238 242 246 248 252 256 258 258 260 264 267 268 271 269 260 254 259 267
339 344 347 342 319 292 242 231 298 337 337 348 31 113 156 169 187 207 210 177 99 96 104 97 75 64 79 206 206 194 151 245 256 255 235 219 219 220 221 225 229 230 231 234 238 243 249 252 254 259 262 262 260 261 262 263 264 268 262 247 245 257 265
356 354 356 359 336 276 205 217 295 329 326 331 28 89 140 157 170 196 230 262 280 212 141 145 54 52 57 92 146 159 127 92 236 225 196 190 219 233 233 236 241 240 237 237 239 248 258 260 258 260 263 261 258 257 257 257 259 261 256 250 257 265 262
357 353 357 4 355 185 167 179 227 228 150 131 116 119 123 125 124 108 100 102 154 190 195 265 6 116 102 93 100 138 153 133 241 238 162 162 219 248 276 316 333 335 305 284 269 264 275 282 268 262 261 256 256 253 253 259 265 268 269 269 273 270 250
348 351 359 9 23 147 149 145 144 138 125 116 116 109 97 94 94 92 97 103 110 118 117 94 84 94 105 109 108 116 137 157 197 253 71 94 131 110 65 49 41 53 66 70 74 78 77 77 80 79 77 76 66 62 50 4 1 359 358 1 334 298 267
341 353 1 11 33 148 170 155 124 107 101 99 100 94 85 87 91 92 95 96 93 89 84 81 83 84 90 99 102 102 111 126 127 103 86 87 91 86 81 84 84 83 85 85 85 86 84 81 79 76 75 76 72 73 74 63 54 50 43 50 66 74 64
328 356 7 19 33 128 174 153 111 92 93 94 93 92 90 90 91 92 93 92 88 84 78 74 77 81 83 87 91 94 97 99 96 90 86 86 89 88 86 86 87 86 84 82 80 79 77 75 72 68 68 72 71 72 75 71 65 64 57 53 65 78 89
297 354 6 6 7 341 186 140 110 99 102 102 100 101 99 97 96 95 94 93 90 87 84 78 74 75 80 84 87 91 95 96 95 94 91 89 91 92 88 85 83 81 80 75 72 70 69 68 67 63 63 65 64 62 67 69 66 65 67 65 60 56 51
257 343 355 325 334 336 263 151 120 110 116 117 112 111 109 107 108 104 101 101 100 97 95 91 85 81 80 83 85 89 93 96 97 98 97 95 93 92 91 88 83 78 73 68 64 62 60 61 61 56 54 55 53 51 53 53 49 45 41 35 14 327 300
228 189 34 318 357 25 268 175 143 126 132 135 125 119 117 115 117 118 114 111 111 110 107 104 99 92 85 80 79 82 84 87 88 87 87 86 84 82 79 76 72 68 62 55 49 43 41 43 43 38 35 30 24 18 11 358 353 348 333 316 300 288 281
Height
3162 3162 3163 3164 3164 3165 3167 3168 3168 3168 3169 3172 3174 3174 3174 3173 3174 3176 3179 3182 3183 3184 3185 3186 3187 3187 3188 3189 3190 3191 3193 3194 3195 3196 3197 3198 3199 3200 3200 3201 3202 3203 3204 3205 3206 3207 3207 3208 3209 3209 3210 3211 3211 3212 3212 3213 3213 3213 3214 3214 3214 3215 3215
3162 3162 3162 3162 3163 3164 3165 3166 3166 3167 3169 3172 3173 3174 3175 3174 3174 3173 3175 3178 3181 3183 3184 3185 3186 3187 3188 3188 3189 3190 3192 3193 3194 3195 3196 3197 3198 3199 3200 3201 3202 3203 3203 3204 3205 3206 3206 3207 3208 3209 3209 3210 3210 3211 3211 3212 3212 3212 3213 3213 3213 3214 3214
3160 3161 3161 3161 3161 3162 3163 3163 3164 3165 3167 3169 3170 3172 3174 3175 3175 3175 3174 3175 3177 3180 3183 3184 3185 3186 3187 3188 3188 3189 3190 3192 3193 3195 3196 3197 3198 3199 3199 3200 3201 3202 3203 3203 3204 3205 3206 3206 3207 3208 3209 3209 3209 3210 3210 3211 3211 3212 3212 3212 3212 3213 3213
3160 3159 3159 3160 3160 3160 3160 3161 3161 3162 3164 3166 3168 3170 3171 3173 3174 3176 3176 3175 3175 3176 3179 3182 3184 3185 3186 3187 3188 3189 3190 3191 3192 3194 3195 3196 3197 3198 3198 3199 3201 3201 3202 3203 3204 3204 3205 3206 3207 3207 3208 3208 3209 3209 3209 3210 3210 3211 3211 3211 3212 3212 3212
3159 3159 3158 3158 3158 3158 3158 3159 3159 3159 3160 3162 3164 3167 3169 3170 3172 3173 3175 3175 3175 3174 3175 3178 3181 3183 3184 3186 3187 3188 3189 3189 3191 3192 3193 3194 3195 3196 3197 3199 3200 3201 3202 3202 3203 3204 3204 3205 3206 3206 3207 3207 3208 3208 3208 3209 3209 3210 3210 3210 3211 3211 3211
3159 3159 3158 3157 3157 3157 3157 3157 3157 3157 3157 3158 3160 3163 3165 3167 3169 3171 3171 3172 3174 3174 3174 3175 3177 3180 3182 3184 3185 3186 3187 3188 3189 3190 3192 3193 3194 3195 3196 3198 3199 3200 3201 3201 3202 3203 3203 3204 3205 3205 3206 3206 3207 3207 3207 3208 3208 3208 3208 3209 3209 3210 3210
3158 3158 3157 3156 3156 3155 3156 3156 3156 3155 3154 3155 3156 3158 3160 3163 3165 3167 3168 3169 3171 3173 3174 3174 3175 3177 3179 3182 3183 3184 3186 3187 3187 3189 3190 3191 3192 3194 3195 3196 3197 3198 3199 3200 3201 3201 3202 3203 3203 3204 3205 3205 3206 3206 3206 3207 3207 3207 3208 3208 3208 3209 3209
3157 3156 3156 3155 3154 3154 3154 3154 3154 3153 3152 3152 3152 3154 3156 3159 3161 3163 3165 3167 3169 3171 3172 3173 3174 3174 3176 3179 3181 3183 3184 3185 3186 3187 3188 3189 3190 3192 3193 3195 3196 3197 3197 3198 3199 3200 3201 3201 3202 3203 3203 3204 3205 3205 3206 3206 3207 3207 3207 3208 3208 3208 3208
3155 3154 3154 3153 3152 3152 3151 3151 3151 3151 3150 3150 3150 3151 3152 3154 3157 3159 3162 3164 3166 3168 3170 3172 3173 3173 3174 3176 3178 3181 3182 3183 3184 3185 3187 3188 3189 3190 3191 3193 3194 3195 3195 3197 3197 3198 3199 3200 3201 3201 3202 3203 3204 3204 3205 3205 3206 3206 3206 3207 3207 3207 3207
3153 3152 3151 3150 3150 3149 3149 3149 3149 3148 3148 3148 3148 3148 3149 3151 3153 3155 3158 3160 3163 3165 3168 3169 3171 3171 3171 3172 3175 3178 3180 3181 3182 3183 3185 3186 3187 3188 3189 3191 3192 3192 3193 3194 3195 3196 3197 3198 3199 3200 3201 3202 3203 3203 3203 3204 3204 3204 3205 3206 3206 3207 3207
3150 3149 3148 3148 3147 3147 3146 3146 3146 3146 3145 3145 3145 3145 3146 3148 3149 3151 3154 3156 3159 3162 3165 3167 3169 3170 3170 3170 3171 3173 3176 3179 3181 3182 3183 3184 3185 3187 3188 3189 3190 3191 3192 3193 3194 3195 3196 3197 3198 3199 3200 3201 3201 3202 3202 3203 3203 3203 3204 3204 3205 3205 3205
3148 3147 3146 3145 3144 3144 3144 3143 3143 3143 3143 3143 3143 3143 3144 3145 3146 3148 3150 3153 3155 3158 3161 3164 3166 3168 3169 3169 3169 3170 3172 3175 3178 3180 3182 3183 3184 3185 3187 3188 3189 3190 3191 3192 3192 3193 3194 3195 3196 3197 3198 3199 3200 3200 3201 3201 3202 3202 3203 3203 3203 3203 3203
3145 3144 3143 3142 3142 3141 3141 3141 3140 3140 3140 3140 3140 3141 3141 3142 3144 3146 3147 3149 3151 3153 3156 3160 3162 3164 3167 3168 3168 3168 3169 3171 3174 3177 3179 3181 3182 3183 3184 3186 3187 3188 3190 3190 3191 3192 3192 3193 3194 3195 3196 3197 3198 3199 3199 3200 3200 3201 3201 3202 3202 3202 3202
3143 3142 3141 3140 3139 3138 3138 3138 3138 3138 3138 3138 3138 3138 3138 3139 3141 3142 3144 3146 3147 3149 3152 3155 3158 3160 3163 3165 3167 3168 3168 3168 3170 3174 3176 3178 3179 3181 3182 3184 3185 3186 3187 3188 3189 3190 3190 3191 3192 3193 3194 3195 3196 3197 3197 3198 3198 3199 3199 3200 3200 3200 3200
3140 3139 3138 3137 3136 3136 3136 3136 3135 3135 3135 3135 3135 3135 3136 3136 3138 3139 3140 3141 3143 3145 3148 3151 3154 3156 3159 3161 3163 3166 3166 3166 3167 3170 3173 3175 3176 3178 3179 3181 3182 3183 3185 3186 3187 3188 3188 3189 3189 3190 3192 3193 3194 3194 3195 3196 3196 3197 3197 3198 3198 3198 3198
3138 3137 3136 3135 3134 3134 3133 3133 3133 3132 3132 3132 3132 3133 3133 3133 3134 3135 3136 3137 3139 3141 3144 3147 3149 3152 3154 3157 3160 3162 3164 3163 3163 3165 3169 3171 3173 3175 3176 3178 3179 3180 3181 3183 3184 3185 3186 3186 3187 3188 3189 3190 3191 3192 3193 3194 3195 3195 3195 3196 3196 3196 3196
3136 3135 3134 3133 3132 3132 3131 3131 3130 3130 3130 3130 3129 3129 3130 3130 3131 3131 3132 3133 3134 3137 3140 3142 3146 3148 3151 3153 3155 3158 3159 3160 3160 3162 3165 3167 3169 3171 3173 3174 3176 3177 3178 3179 3180 3182 3183 3184 3184 3185 3186 3187 3188 3189 3190 3191 3192 3193 3193 3193 3194 3193 3193
3134 3133 3132 3131 3131 3130 3129 3129 3128 3128 3127 3127 3127 3127 3127 3127 3128 3128 3129 3129 3131 3134 3136 3138 3142 3145 3147 3149 3151 3154 3156 3157 3158 3159 3161 3164 3165 3167 3169 3170 3172 3173 3175 3176 3177 3179 3180 3181 3182 3183 3183 3184 3185 3186 3187 3188 3189 3190 3191 3191 3192 3191 3191
3132 3132 3131 3130 3129 3129 3128 3127 3127 3126 3126 3125 3125 3125 3125 3125 3125 3126 3126 3127 3128 3130 3132 3135 3138 3141 3143 3145 3147 3149 3151 3152 3154 3156 3159 3161 3162 3163 3165 3166 3168 3170 3171 3173 3174 3176 3177 3179 3180 3180 3181 3181 3182 3183 3184 3185 3187 3188 3188 3189 3189 3189 3189
3131 3131 3130 3129 3128 3128 3127 3126 3126 3125 3125 3124 3124 3124 3124 3123 3123 3123 3124 3125 3126 3127 3129 3132 3135 3137 3140 3141 3142 3144 3146 3148 3150 3152 3154 3155 3157 3159 3161 3164 3166 3168 3169 3170 3172 3174 3176 3176 3177 3178 3178 3179 3180 3180 3181 3183 3184 3185 3185 3185 3186 3186 3186
3130 3130 3129 3128 3127 3127 3126 3126 3126 3125 3124 3123 3123 3123 3123 3122 3122 3122 3122 3123 3125 3126 3128 3130 3132 3135 3137 3138 3140 3143 3146 3148 3150 3151 3151 3151 3152 3155 3159 3163 3165 3165 3166 3167 3170 3172 3173 3173 3174 3175 3176 3176 3177 3178 3179 3180 3181 3181 3182 3182 3182 3183 3182
3129 3129 3128 3127 3127 3126 3126 3126 3126 3125 3124 3123 3122 3122 3122 3121 3121 3121 3121 3121 3123 3124 3126 3128 3130 3132 3134 3136 3138 3141 3143 3145 3147 3148 3150 3150 3150 3151 3155 3159 3161 3162 3163 3165 3166 3166 3168 3170 3172 3174 3175 3176 3176 3176 3177 3177 3178 3178 3179 3179 3179 3179 3179
3129 3128 3127 3127 3126 3126 3126 3126 3125 3125 3124 3123 3122 3122 3121 3120 3120 3119 3119 3119 3120 3122 3124 3126 3128 3129 3131 3132 3134 3136 3139 3140 3141 3143 3146 3148 3148 3148 3151 3155 3157 3159 3161 3163 3162 3161 3164 3168 3170 3171 3173 3174 3175 3174 3174 3174 3175 3175 3175 3175 3175 3175 3175
3128 3127 3127 3126 3125 3125 3125 3125 3125 3124 3123 3123 3122 3121 3120 3119 3118 3118 3118 3118 3118 3119 3120 3122 3125 3127 3128 3128 3130 3132 3135 3136 3137 3139 3141 3143 3144 3146 3148 3151 3153 3154 3157 3159 3159 3159 3161 3164 3166 3167 3169 3170 3170 3170 3170 3171 3171 3171 3171 3172 3171 3171 3170
3127 3126 3126 3126 3125 3125 3125 3125 3124 3124 3123 3122 3122 3121 3120 3118 3118 3117 3117 3117 3117 3118 3118 3120 3121 3123 3124 3125 3126 3128 3130 3132 3134 3136 3136 3138 3140 3143 3145 3147 3148 3150 3152 3155 3156 3157 3158 3161 3162 3164 3165 3165 3166 3166 3167 3167 3167 3167 3168 3168 3168 3167 3165
3126 3126 3125 3125 3125 3125 3124 3124 3124 3124 3123 3122 3122 3121 3119 3118 3117 3117 3118 3118 3118 3118 3118 3118 3119 3120 3121 3122 3123 3124 3127 3129 3131 3133 3134 3136 3138 3140 3143 3144 3145 3146 3149 3152 3153 3154 3156 3158 3160 3161 3162 3163 3163 3163 3163 3163 3163 3164 3164 3164 3164 3162 3161
3124 3124 3124 3124 3124 3124 3124 3124 3124 3123 3123 3122 3121 3121 3119 3118 3117 3117 3117 3118 3118 3118 3118 3118 3119 3120 3120 3121 3122 3124 3126 3128 3128 3129 3132 3135 3137 3139 3141 3142 3143 3145 3147 3150 3151 3153 3155 3156 3157 3158 3159 3159 3160 3160 3160 3160 3159 3160 3160 3160 3160 3159 3158
3123 3123 3123 3123 3123 3122 3122 3122 3123 3123 3122 3121 3121 3120 3119 3118 3117 3117 3117 3118 3118 3119 3119 3119 3119 3120 3120 3121 3123 3124 3126 3128 3127 3128 3131 3135 3137 3138 3139 3141 3143 3145 3146 3148 3149 3151 3152 3153 3154 3155 3156 3156 3156 3156 3156 3156 3156 3156 3156 3157 3157 3157 3156
3123 3123 3122 3122 3121 3121 3120 3121 3122 3122 3121 3121 3120 3120 3119 3118 3118 3118 3118 3119 3119 3119 3120 3120 3120 3121 3122 3123 3124 3125 3126 3127 3127 3128 3131 3134 3136 3137 3139 3141 3142 3143 3144 3146 3147 3148 3150 3151 3151 3152 3152 3152 3152 3152 3153 3153 3153 3153 3153 3153 3154 3154 3154
3122 3122 3122 3121 3120 3120 3120 3122 3122 3121 3120 3120 3120 3119 3119 3119 3119 3119 3119 3120 3121 3121 3121 3121 3122 3123 3123 3123 3125 3126 3126 3127 3127 3128 3130 3132 3134 3135 3137 3138 3139 3141 3142 3143 3145 3146 3147 3148 3148 3148 3148 3148 3149 3149 3150 3150 3150 3150 3150 3151 3151 3152 3152
3122 3122 3121 3121 3120 3120 3120 3122 3122 3121 3120 3120 3119 3119 3119 3119 3120 3120 3121 3122 3123 3123 3123 3123 3124 3125 3124 3124 3126 3127 3127 3128 3128 3128 3130 3132 3133 3133 3134 3136 3137 3139 3140 3141 3142 3143 3144 3144 3145 3145 3145 3146 3146 3147 3147 3148 3148 3148 3149 3149 3150 3149 3150
3121 3121 3121 3120 3120 3120 3120 3121 3122 3121 3121 3120 3120 3120 3120 3120 3120 3121 3122 3123 3123 3124 3124 3124 3125 3126 3126 3127 3127 3127 3128 3129 3129 3129 3131 3133 3133 3134 3135 3135 3136 3137 3138 3139 3140 3141 3142 3142 3143 3143 3144 3144 3145 3145 3146 3146 3146 3147 3147 3147 3148 3148 3147
3121 3121 3121 3120 3120 3120 3120 3121 3121 3121 3121 3121 3120 3120 3120 3121 3121 3122 3123 3123 3124 3124 3125 3125 3126 3126 3127 3128 3128 3128 3129 3130 3130 3131 3132 3133 3134 3134 3135 3136 3136 3137 3138 3139 3140 3141 3142 3142 3143 3143 3143 3144 3144 3145 3145 3145 3145 3146 3146 3146 3147 3147 3147
3121 3121 3121 3121 3121 3120 3121 3121 3121 3121 3122 3121 3121 3121 3122 3122 3122 3123 3123 3124 3124 3125 3126 3127 3127 3128 3129 3129 3129 3130 3131 3132 3132 3133 3133 3134 3134 3136 3136 3137 3138 3138 3139 3140 3141 3141 3142 3143 3143 3143 3143 3144 3144 3144 3145 3145 3145 3145 3146 3146 3146 3147 3147
3121 3121 3121 3121 3121 3122 3122 3121 3121 3122 3123 3123 3122 3123 3123 3123 3124 3124 3124 3125 3125 3126 3128 3129 3129 3130 3130 3130 3130 3131 3132 3133 3133 3134 3134 3135 3136 3137 3138 3139 3140 3140 3141 3141 3142 3142 3143 3143 3143 3143 3144 3144 3144 3144 3144 3144 3145 3145 3145 3146 3146 3146 3147
3122 3122 3122 3122 3122 3122 3122 3122 3121 3123 3124 3124 3124 3125 3125 3125 3125 3125 3126 3126 3127 3128 3129 3130 3130 3131 3131 3132 3132 3133 3134 3134 3135 3136 3136 3137 3138 3139 3140 3140 3141 3142 3142 3142 3143 3143 3143 3144 3144 3144 3144 3144 3144 3144 3144 3144 3145 3145 3145 3146 3146 3146 3147
3121 3121 3122 3122 3122 3123 3123 3123 3122 3123 3125 3126 3126 3126 3126 3127 3127 3127 3127 3128 3129 3130 3130 3131 3132 3132 3133 3133 3134 3135 3135 3136 3137 3137 3138 3139 3139 3140 3141 3141 3142 3142 3142 3143 3143 3143 3144 3144 3144 3144 3144 3145 3145 3145 3145 3145 3145 3146 3146 3146 3147 3147 3147
3121 3121 3121 3122 3122 3123 3124 3124 3124 3124 3125 3127 3127 3127 3128 3128 3128 3129 3129 3130 3130 3131 3132 3133 3133 3134 3134 3135 3135 3136 3137 3138 3138 3139 3139 3140 3140 3141 3141 3142 3142 3142 3142 3143 3143 3143 3143 3144 3144 3144 3145 3145 3145 3145 3145 3145 3146 3146 3146 3146 3147 3147 3147